Homer, AK

6:08 PM AKDT on March 26, 2017 (GMT -0800)
Homer

Weather History for PAHO - February, 2011

Change the Weather History Date:

Monday, February 21, 2011

  Actual Average Record
Temperature  
Mean Temperature 30 °F -  
Max Temperature 32 °F 31 °F 52 °F (2015)
Min Temperature 28 °F 18 °F -3 °F (1956)
Degree Days  
Heating Degree Days 35    
Moisture  
Dew Point 12 °F    
Average Humidity 49    
Maximum Humidity 69    
Minimum Humidity 30    
Precipitation  
Precipitation 0.00 in - - ()
Sea Level Pressure  
Sea Level Pressure 30.45 in    
Wind  
Wind Speed 13 mph (West)    
Max Wind Speed 22 mph    
Max Gust Speed 37 mph    
Visibility 10 miles    
Events      
Averages and records for this station are not official NWS values.
T = Trace of Precipitation, MM = Missing Value Source: NWS Daily Summary

Daily Weather History Graph

Daily Weather History Graph

Search for Another Location

Airport or City:

Trip Planner

Search our weather history database for the weather conditions in past years. The results will help you decide how hot, cold, wet, or windy it might be!

Date:

Astronomy

Feb. 21, 2011 Rise Set
Actual Time 8:26 AM AKST 6:13 PM AKST
Civil Twilight 7:43 AM AKST 6:56 PM AKST
Nautical Twilight 6:56 AM AKST 7:44 PM AKST
Astronomical Twilight 6:08 AM AKST 8:31 PM AKST
Moon No Moon Rise 8:39 AM AKST (2/21)
Length of Visible Light 11h 12m
Length of Day
9h 47m
Waning Gibbous, 83% of the Moon is Illuminated
Feb 21
Waning Gibbous
Feb 24
Last Quarter
Mar 4
New
Mar 12
First Quarter
Mar 19
Full

Hourly Weather History & Observations

Time (AKST) Temp. Windchill Dew Point Humidity Pressure Visibility Wind Dir Wind Speed Gust Speed Precip Events Conditions
12:53 AM 32.0 °F 20.8 °F 23.0 °F 69% 30.22 in 10.0 mi West 17.3 mph 25.3 mph N/A   Clear
1:53 AM 32.0 °F 22.1 °F 21.9 °F 66% 30.25 in 10.0 mi West 13.8 mph 21.9 mph N/A   Clear
2:53 AM 32.0 °F 21.2 °F 21.0 °F 64% 30.27 in 10.0 mi West 16.1 mph 24.2 mph N/A   Clear
3:53 AM 32.0 °F 23.0 °F 21.0 °F 64% 30.29 in 10.0 mi West 11.5 mph 20.7 mph N/A   Clear
4:53 AM 32.0 °F 23.0 °F 19.9 °F 61% 30.32 in 10.0 mi West 11.5 mph 21.9 mph N/A   Clear
5:53 AM 30.9 °F 21.2 °F 21.0 °F 67% 30.34 in 10.0 mi West 12.7 mph 24.2 mph N/A   Clear
6:53 AM 30.9 °F 22.2 °F 16.0 °F 54% 30.35 in 10.0 mi WNW 10.4 mph 19.6 mph N/A   Clear
7:53 AM 30.0 °F 23.2 °F 16.0 °F 56% 30.37 in 10.0 mi West 6.9 mph - N/A   Clear
8:53 AM 30.0 °F 21.1 °F 16.0 °F 56% 30.38 in 10.0 mi West 10.4 mph 20.7 mph N/A   Clear
9:53 AM 30.9 °F 19.8 °F 14.0 °F 50% 30.40 in 10.0 mi West 16.1 mph 21.9 mph N/A   Clear
10:53 AM 30.9 °F 22.8 °F 12.0 °F 46% 30.44 in 10.0 mi WNW 9.2 mph 24.2 mph N/A   Clear
11:53 AM 30.9 °F 20.7 °F 9.0 °F 40% 30.47 in 10.0 mi WNW 13.8 mph 27.6 mph N/A   Clear
12:53 PM 30.0 °F 18.3 °F 1.9 °F 30% 30.48 in 10.0 mi WNW 17.3 mph 28.8 mph N/A   Clear
1:53 PM 30.0 °F 20.0 °F 3.9 °F 33% 30.53 in 10.0 mi NW 12.7 mph 24.2 mph N/A   Clear
2:53 PM 28.9 °F 19.2 °F 5.0 °F 36% 30.53 in 10.0 mi West 11.5 mph - N/A   Clear
3:53 PM 28.9 °F 18.6 °F 3.9 °F 35% 30.55 in 10.0 mi West 12.7 mph 23.0 mph N/A   Clear
4:53 PM 28.9 °F 21.9 °F 3.9 °F 35% 30.57 in 10.0 mi NW 6.9 mph 17.3 mph N/A   Clear
5:53 PM 28.0 °F 20.8 °F 3.0 °F 34% 30.58 in 10.0 mi West 6.9 mph - N/A   Clear
6:53 PM 28.0 °F 20.8 °F 3.9 °F 36% 30.58 in 10.0 mi West 6.9 mph - N/A   Clear
7:53 PM 28.0 °F 16.5 °F 7.0 °F 41% 30.58 in 10.0 mi West 15.0 mph 23.0 mph N/A   Clear
8:53 PM 28.0 °F 16.5 °F 6.1 °F 39% 30.57 in 10.0 mi West 15.0 mph 21.9 mph N/A   Clear
9:53 PM 28.0 °F 14.3 °F 14.0 °F 56% 30.56 in 10.0 mi West 21.9 mph 36.8 mph N/A   Clear
10:53 PM 28.0 °F 16.1 °F 15.1 °F 58% 30.56 in 10.0 mi West 16.1 mph 25.3 mph N/A   Clear
11:53 PM 28.0 °F 17.5 °F 15.1 °F 58% 30.57 in 10.0 mi West 12.7 mph 19.6 mph N/A   Clear